Regional Weather Roundup
Issued by NWS

Home | Current Version | Previous Version | Graphics & Text | Print | Product List | Glossary On
Versions: 1 2 3 4 5 6 7 8 9 10 11 12 13 14 15 16 17 18 19 20 21 22 23 24 25 26 27 28 29 30 31 32 33 34 35 36 37 38 39 40 41 42 43 44 45 46 47 48 49 50
000
ASUS45 KTFX 201104
RWRMT
MONTANA HOURLY WEATHER ROUNDUP
NATIONAL WEATHER SERVICE GREAT FALLS MT
504 AM MDT WED AUG 20 2014

NOTE: "FAIR" INDICATES FEW OR NO CLOUDS BELOW 12000 FEET WITH NO
SIGNIFICANT WEATHER AND/OR OBSTRUCTIONS TO VISIBILITY.

* THESE STATIONS ARE NOT UNDER NWS QUALITY CONTROL. THEY DO NOT
   REPORT WEATHER SUCH AS PRECIPITATION OR FOG.

MTZ001>007-043-201200-
WEST OF THE DIVIDE
CITY           SKY/WX    TMP DP  RH WIND       PRES   REMARKS
KALISPELL      LGT RAIN  57  55  93 E8        29.80R
MISSOULA       PTCLDY    55  52  90 NW3       29.84S
BUTTE          MOCLDY    50  43  77 CALM      29.94R
MULLAN PASS    LGT RAIN  54  46  74 S7        29.91S
$$

MTZ008-052>055-201200-
SOUTHWEST MONTANA
CITY           SKY/WX    TMP DP  RH WIND       PRES   REMARKS
BOZEMAN        MOCLDY    54  46  74 S7        29.87R
DILLON         CLOUDY    54  46  74 CALM      29.91S
W YELLOWSTONE  FOG       45  45 100 CALM      30.02S VSB M1/4
$$

MTZ009>010-012-014-046-048-049-054-201200-
EAST SLOPES AND CENTRAL MONTANA
CITY           SKY/WX    TMP DP  RH WIND       PRES   REMARKS
CUT BANK       CLOUDY    55  50  83 W8        29.80R
GREAT FALLS    PTCLDY    57  48  72 CALM      29.79R
HELENA         MOCLDY    64  48  56 CALM      29.82R
MALMSTROM AFB  PTCLDY    54  48  80 S6        29.80R
$$

MTZ011-013-016-021-035-040-045-047-050-051-201200-
NORTH CENTRAL MONTANA
CITY           SKY/WX    TMP DP  RH WIND       PRES   REMARKS
HAVRE          PTCLDY    57  55  93 SW6       29.72S
LEWISTOWN      CLOUDY    63  45  52 W10       29.81R
$$

MTZ017>020-022>027-061-062-201200-
NORTHEAST MONTANA
CITY           SKY/WX    TMP DP  RH WIND       PRES   REMARKS
GLASGOW        MOCLDY    66  54  65 NW9       29.60S
GLENDIVE       CLOUDY    70  61  73 S9        29.63F
JORDAN         MOCLDY    64  52  65 W8        29.64R
SIDNEY         MOCLDY    66  61  84 CALM      29.61F
WOLF POINT     CLOUDY    66  50  56 NE3       29.58S
$$

MTZ028>042-056>058-201200-
SOUTHCENTRAL AND SOUTHEAST MONTANA
CITY           SKY/WX    TMP DP  RH WIND       PRES   REMARKS
BAKER          CLOUDY    70  61  73 S7        29.69R
BILLINGS       CLOUDY    72  43  35 W14       29.76R
LIVINGSTON     CLOUDY    64  45  50 W18G31    29.84S
MILES CITY     CLOUDY    72  46  40 W8        29.64R
$$

REGIONAL REPORTS...DAKOTAS
CITY           SKY/WX    TMP DP  RH WIND       PRES   REMARKS
WILLISTON      CLOUDY    70  61  73 SE6       29.61F
DICKINSON      PTCLDY    63  59  87 S9        29.66S
BEACH          N/A       63  63 100 E6        29.66F
CROSBY         TSTM      66  64  93 S8        29.62S
TIOGA          CLEAR     63  63 100 SE8       29.67F
WATFORD CITY   CLEAR     64  59  84 SE5       29.61F
BISMARCK       PTCLDY    64  61  90 E9        29.70S
GRAND FORKS    PTCLDY    63  61  93 SE7       29.76S
FARGO          PTCLDY    64  63  97 SE6       29.76F
BUFFALO SD     CLOUDY    73  57  57 S16G31    29.62F
RAPID CITY     CLOUDY    66  55  68 CALM      29.72R
$$

REGIONAL REPORTS...WYOMING/IDAHO/WASHINGTON
CITY           SKY/WX    TMP DP  RH WIND       PRES   REMARKS
GILLETTE       MOCLDY    68  48  49 SW13      29.75F
SHERIDAN       CLOUDY    72  43  35 NW12G18   29.76R
CODY           CLOUDY    66  43  43 W9        29.85R
YELLOWSTONE LA PTCLDY    39  37  93 CALM      30.09S
SALMON         MOCLDY    54  52  93 CALM      29.89S
MULLAN PASS    LGT RAIN  54  46  74 S7        29.91S
SAND POINT     PTCLDY    59  59 100 NE7       29.74S
SPOKANE        FAIR      63  52  68 S7        29.74R

$$



USA.gov is the U.S. government's official web portal to all federal, state and local government web resources and services.